User: anonymous   Login
Location: Unspecified
(0.0000°N, 0.0000°E)
Time: 03:39:59
(UTC+00:00)
Language:

STRELA 3 - Orbit

View from above orbital plane
View from above orbital plane
View from above satellite
View from above satellite

Ground track
Ground track

The orbit data is extracted from the following two-line orbital elements,

1 37153U 10043B   18321.69670352 +.00000016 +00000-0 +46155-4 0  9992
2 37153 082.4609 002.8736 0006674 341.6379 018.4457 12.40730573371105
Epoch (UTC): 17 November 2018 16:43:15
Eccentricity: 0.0006674
inclination: 82.4609°
perigee height: 1498 km
apogee height: 1509 km
right ascension of ascending node: 2.8736°
argument of perigee: 341.6379°
revolutions per day: 12.40730573
mean anomaly at epoch: 18.4457°
orbit number at epoch: 37110

The dashed part of the orbit path shows where the satellite is in the earth's shadow,  

DLR